Regional Weather Roundup
Issued by NWS

Home | Current Version | Previous Version | Graphics & Text | Print | Product List | Glossary On
Versions: 1 2 3 4 5 6 7 8 9 10 11 12 13 14 15 16 17 18 19 20 21 22 23 24 25 26 27 28 29 30 31 32 33 34 35 36 37 38 39 40 41 42 43 44 45 46 47 48 49 50
000
ASUS45 KABQ 040501
RWRNM
WEATHER ROUNDUP FOR NEW MEXICO
NATIONAL WEATHER SERVICE ALBUQUERQUE NM
1000 PM MST TUE MAR 03 2015

NOTE: "FAIR" MEANS FEW OR NO CLOUDS BELOW 12,000 FEET AGL WITH NO
       SIGNIFICANT WEATHER OR OBSTRUCTIONS TO VISION.

      THIS PRODUCT IS RELEASED AS TWO VERSIONS.  ONE VERSION NEAR
      THE TOP OF THE HOUR CONTAINING PRELIMINARY DATA FROM ALBUQUERQUE
      AND OTHER STATIONS.  A FINAL VERSION WITH ADDITIONAL DATA IS
      ISSUED ABOUT 10 MINUTES AFTER THE HOUR.

NMZ501-503-504-510>518-040600-
NORTHWEST PLATEAU/NORTHCENTRAL MOUNTAINS

CITY           SKY/WX    TMP DP  RH WIND       PRES   REMARKS
FARMINGTON     PTCLDY    32  27  81 CALM      29.87R
SANTA FE       CLEAR     34  20  56 CALM      29.85R
TAOS           PTCLDY    28  18  64 SE7       29.86R WCI  21
ANGEL FIRE     CLOUDY    29  19  67 S10G16    29.86R WCI  20

$$
NMZ402-403-502-505>509-040600-
WESTCENTRAL MOUNTAINS/SOUTHWEST MOUNTAINS

CITY           SKY/WX    TMP DP  RH WIND       PRES   REMARKS
GALLUP         FLURRIES  33  29  85 S5        29.90R WCI  29
GRANTS         CLEAR     25  22  87 W10G17    29.91R WCI  15
SILVER CITY    CLEAR     37  28  70 N9        29.89S WCI  31

$$
NMZ407-409-411-412-040600-
SOUTHERN DESERTS

CITY           SKY/WX    TMP DP  RH WIND       PRES   REMARKS
DEMING         CLEAR     44  37  76 W3        29.86R
HOLLOMAN AFB   PTCLDY    50  42  74 SW13      29.83F
ALAMOGORDO     PTCLDY    50  41  71 S9        29.86S
T OR C         CLEAR     44  26  49 W7        29.84S

$$
NMZ519>523-040600-
CENTRAL VALLEYS/CENTRAL HIGHLANDS

CITY           SKY/WX    TMP DP  RH WIND       PRES   REMARKS
ALBUQUERQUE    PTCLDY    45  19  35 NW7       29.87R
DOUBLE EAGLE   CLEAR     34  21  60 N3        29.88R
CLINES CORNERS CLEAR     30  21  69 W9        29.84R WCI  22
BELEN          FAIR      37  24  60 W10       29.87R WCI  30
SOCORRO          N/A     42  17  36 SW7       29.86R

$$
NMZ524>526-539-540-040600-
SOUTHCENTRAL MOUNTAINS

CITY           SKY/WX    TMP DP  RH WIND       PRES   REMARKS
RUIDOSO        NOT AVBL

$$
NMZ527>531-040600-
NORTHEAST HIGHLANDS/NORTHEAST PLAINS

CITY           SKY/WX    TMP DP  RH WIND       PRES   REMARKS
LAS VEGAS      PTCLDY    34  18  52 NW6       29.83R WCI  29
RATON          CLEAR     28  24  85 NE7       29.79S WCI  21
CLAYTON        FOG       28  27  96 NE14      29.88R VSB 1/2 WCI  17

$$
NMZ532>537-040600-
EASTCENTRAL PLAINS

CITY           SKY/WX    TMP DP  RH WIND       PRES   REMARKS
TUCUMCARI      CLOUDY    37  34  89 NE18      29.82R WCI  27
CANNON AFB     CLOUDY    47  42  84 SW7       29.81S
CLOVIS AIRPORT CLOUDY    43  39  87 S7        29.81F

$$
NMZ028-029-538-040600-
SOUTHEAST PLAINS

CITY           SKY/WX    TMP DP  RH WIND       PRES   REMARKS
ROSWELL        CLOUDY    51  42  71 S10       29.83R
ARTESIA        CLOUDY    46  45  93 S10       29.86R
CARLSBAD       CLOUDY    55  44  66 S9        29.84S
HOBBS          CLOUDY    50  50 100 SE7       29.88R


$$



USA.gov is the U.S. government's official web portal to all federal, state and local government web resources and services.